GW3518 Weather Reports


time (UTC)temp
C
wind
direction
speed
KPH
gust
KPH
rain 1hr
cm
rain 24hr
cm
rain mn
cm
humidity
%
barometer
mb
20260506222255 9 349 0.0 0.0 0.00 1.68 1.68 99 1004.6
20260506221749 9 111 0.0 0.0 0.00 1.68 1.68 99 1004.3
20260506221246 9 132 0.0 0.0 0.00 1.68 1.68 99 1004.3
20260506220744 10 346 0.0 1.6 0.00 1.68 1.68 99 1004.3
20260506220238 10 126 0.0 0.0 0.00 1.68 1.68 99 1004.1
20260506215735 10 232 0.0 1.6 0.00 1.68 1.68 99 1004.0
20260506215230 10 134 0.0 0.0 0.00 1.68 1.68 99 1003.9
20260506214727 10 141 0.0 0.0 0.00 1.68 1.68 99 1003.8
20260506214225 10 164 0.0 0.0 0.00 1.68 1.68 99 1003.7
20260506213722 11 141 0.0 0.0 0.00 1.68 1.68 99 1003.9
20260506213219 11 86 0.0 0.0 0.00 1.68 1.68 99 1003.7
20260506212716 11 99 0.0 0.0 0.00 1.68 1.68 99 1003.7
20260506212211 11 99 0.0 1.6 0.00 1.68 1.68 99 1003.7
20260506211707 11 160 0.0 0.0 0.00 1.68 1.68 99 1003.3
20260506211204 12 132 1.6 1.6 0.00 1.68 1.68 99 1003.8
20260506210701 13 238 0.0 0.0 0.00 1.68 1.68 99 1003.5
20260506210158 15 259 1.6 1.6 0.00 1.68 1.68 99 1003.5
20260506205656 15 45 0.0 0.0 0.13 1.68 1.68 99 1003.6
20260506205155 15 45 0.0 0.0 0.13 1.68 1.68 99 1003.5
20260506204654 15 45 0.0 0.0 0.18 1.65 1.65 99 1003.4
20260506204150 15 45 0.0 0.0 0.18 1.65 1.65 99 1003.1
20260506203648 15 45 0.0 0.0 0.13 1.63 1.63 99 1003.2
20260506203145 15 46 0.0 0.0 0.13 1.63 1.63 99 1003.1
20260506202643 15 236 0.0 0.0 0.13 1.63 1.63 99 1003.0
20260506202139 15 237 0.0 0.0 0.18 1.60 1.60 99 1003.2
20260506201636 15 266 1.6 1.6 0.30 1.60 1.60 99 1003.0
20260506201132 15 148 0.0 0.0 0.48 1.57 1.57 99 1003.4
20260506200629 15 82 0.0 0.0 0.36 1.55 1.55 99 1003.4
20260506200126 15 104 0.0 0.0 0.30 1.52 1.52 99 1003.1
20260506195622 15 104 0.0 0.0 0.43 1.50 1.50 99 1003.2
20260506195119 15 105 0.0 0.0 0.30 1.47 1.47 99 1003.3
20260506194617 15 104 0.0 0.0 0.00 1.42 1.42 99 1003.1
20260506194113 15 104 0.0 0.0 0.00 1.42 1.42 99 1003.6
20260506193611 15 104 0.0 0.0 0.18 1.42 1.42 99 1003.4
20260506193108 15 104 0.0 0.0 0.18 1.42 1.42 99 1003.8
20260506192605 15 105 0.0 0.0 0.18 1.42 1.42 99 1003.5
20260506192100 15 93 0.0 0.0 0.00 1.40 1.40 99 1003.5
20260506191557 15 131 0.0 0.0 0.00 1.40 1.40 99 1003.8
20260506191053 15 112 1.6 1.6 0.00 1.40 1.40 99 1003.6
20260506190551 15 93 0.0 0.0 0.00 1.40 1.40 99 1003.7
20260506190048 15 156 0.0 0.0 0.13 1.40 1.40 99 1003.5
20260506185545 15 157 0.0 0.0 0.13 1.40 1.40 99 1003.6
20260506185041 15 156 0.0 0.0 0.00 1.37 1.37 99 1003.9
20260506184538 15 157 0.0 0.0 0.00 1.37 1.37 99 1003.9
20260506184035 15 156 0.0 0.0 0.00 1.37 1.37 99 1004.0
20260506183531 15 157 0.0 0.0 0.00 1.37 1.37 99 1003.8
20260506183028 15 157 0.0 0.0 0.18 1.37 1.37 99 1003.8
20260506182525 14 157 0.0 0.0 0.18 1.37 1.37 99 1004.0
20260506182022 14 157 0.0 0.0 0.30 1.37 1.37 99 1004.0
20260506181520 14 157 0.0 0.0 0.30 1.35 1.35 99 1004.1
20260506181017 14 157 0.0 0.0 0.30 1.32 1.32 99 1004.1
20260506180514 13 158 0.0 0.0 0.43 1.30 1.30 99 1004.4
20260506180010 13 160 0.0 0.0 0.97 1.27 1.27 99 1004.3
20260506175507 13 160 0.0 0.0 1.07 1.22 1.22 99 1004.7
20260506175003 13 159 0.0 0.0 0.89 1.14 1.14 99 1004.6
20260506174502 13 159 0.0 0.0 0.89 1.04 1.04 99 1004.4
20260506173957 13 147 0.0 0.0 1.85 0.99 0.99 99 1004.4
20260506173455 13 150 3.2 3.2 2.29 0.91 0.91 99 1004.7
20260506172946 13 175 0.0 0.0 1.55 0.66 0.66 99 1004.7
20260506172444 14 180 1.6 1.6 1.19 0.51 0.51 99 1005.2
20260506171940 14 332 0.0 1.6 0.79 0.38 0.38 99 1005.4
20260506171437 14 331 0.0 0.0 0.61 0.30 0.30 99 1005.3
20260506170930 14 331 0.0 0.0 0.48 0.25 0.25 99 1005.0
20260506170425 14 73 0.0 0.0 0.18 0.20 0.20 99 1005.1
20260506165919 14 352 0.0 0.0 0.13 0.18 0.18 99 1004.8
20260506165417 14 352 0.0 0.0 0.13 0.18 0.18 99 1005.0
20260506164912 14 352 0.0 0.0 0.00 0.15 0.15 99 1004.9
20260506164409 14 352 0.0 0.0 0.18 0.15 0.15 99 1005.2
20260506163907 14 352 0.0 0.0 0.18 0.15 0.15 99 1005.2
20260506163401 14 352 0.0 0.0 0.13 0.13 0.13 99 1005.1
20260506162856 14 352 0.0 0.0 0.13 0.13 0.13 99 1005.2
20260506162355 14 352 0.0 0.0 0.00 0.10 0.10 99 1005.2
20260506161852 14 352 0.0 0.0 0.00 0.10 0.10 99 1005.8
20260506161349 14 352 0.0 0.0 0.18 0.10 0.10 99 1005.6
20260506160847 14 352 0.0 0.0 0.18 0.10 0.10 99 1005.6
20260506160343 14 352 0.0 0.0 0.00 0.08 0.08 99 1005.6
20260506155842 14 352 0.0 0.0 0.00 0.08 0.08 99 1005.8
20260506155338 14 351 0.0 0.0 0.00 0.08 0.08 99 1005.7
20260506153450 14 217 0.0 0.0 0.13 0.08 0.08 99 1006.2
20260506152948 14 218 0.0 0.0 0.00 0.05 0.05 99 1006.4
20260506152444 13 216 0.0 0.0 0.00 0.05 0.05 99 1006.4
20260506151943 13 216 0.0 0.0 0.00 0.05 0.05 99 1006.7
20260506151440 13 216 0.0 0.0 0.00 0.05 0.05 99 1006.3
20260506150938 13 216 0.0 0.0 0.00 0.05 0.05 99 1006.6
20260506150433 13 216 0.0 0.0 0.18 0.05 0.05 98 1006.6
20260506145930 13 216 0.0 0.0 0.18 0.05 0.05 98 1006.5
20260506145426 13 216 0.0 0.0 0.00 0.03 0.03 98 1006.6
20260506144924 13 216 0.0 0.0 0.00 0.03 0.03 98 1006.7
20260506144415 13 216 0.0 0.0 0.00 0.03 0.03 97 1006.8
20260506143914 13 216 0.0 0.0 0.13 0.03 0.03 97 1006.7
20260506143410 13 216 0.0 0.0 0.13 0.03 0.03 96 1006.7
20260506142909 13 216 0.0 0.0 0.00 0.00 0.00 95 1006.2
20260506142407 14 217 0.0 0.0 0.00 0.00 0.00 92 1006.7
20260506141904 14 217 1.6 1.6 0.00 0.00 0.00 92 1006.5
20260506141401 14 327 0.0 0.0 0.00 0.00 0.00 92 1006.6
20260506140900 14 326 0.0 0.0 0.00 0.00 0.00 91 1006.7
20260506140356 14 326 0.0 0.0 0.00 0.00 0.00 91 1006.5
20260506135854 14 326 0.0 0.0 0.00 0.00 0.00 91 1006.7
20260506135351 14 326 0.0 0.0 0.00 0.00 0.00 90 1006.3
20260506134847 14 326 0.0 0.0 0.00 0.00 0.00 91 1006.7
20260506134343 14 327 0.0 0.0 0.00 0.00 0.00 90 1006.5
20260506133840 13 327 0.0 0.0 0.00 0.00 0.00 91 1006.7
20260506133337 13 327 0.0 0.0 0.00 0.00 0.00 92 1006.6
20260506132833 13 326 0.0 0.0 0.00 0.00 0.00 92 1006.5
20260506132331 13 326 0.0 0.0 0.00 0.00 0.00 92 1006.5
20260506131829 13 291 0.0 0.0 0.00 0.00 0.00 92 1006.6
20260506131325 13 213 0.0 1.6 0.00 0.00 0.00 91 1006.6
20260506130822 13 13 0.0 0.0 0.00 0.00 0.00 93 1007.1
20260506130319 13 325 0.0 0.0 0.00 0.00 0.00 93 1007.2
20260506125817 13 323 0.0 0.0 0.00 0.00 0.00 95 1007.3
20260506125314 13 297 0.0 0.0 0.00 0.00 0.00 94 1007.4
20260506124813 13 297 0.0 0.0 0.00 0.00 0.00 94 1007.4
20260506124309 13 297 0.0 0.0 0.00 0.00 0.00 95 1006.7
20260506123807 13 297 0.0 0.0 0.00 0.00 0.00 95 1006.5
20260506123305 13 296 0.0 0.0 0.00 0.00 0.00 95 1007.1
20260506122801 13 296 0.0 0.0 0.00 0.00 0.00 95 1007.2
20260506122258 13 296 0.0 0.0 0.00 0.00 0.00 95 1007.3
20260506121757 13 296 0.0 0.0 0.00 0.00 0.00 96 1007.1
20260506121253 13 296 0.0 0.0 0.00 0.00 0.00 96 1006.9
20260506120751 13 296 0.0 0.0 0.00 0.00 0.00 96 1007.2
20260506120248 13 296 0.0 0.0 0.00 0.00 0.00 96 1007.2
20260506115746 13 296 0.0 0.0 0.00 0.00 0.00 96 1007.2
20260506115244 13 296 0.0 0.0 0.00 0.00 0.00 96 1007.4
20260506114741 13 296 0.0 0.0 0.00 0.00 0.00 96 1007.2
20260506114239 12 296 0.0 0.0 0.00 0.00 0.00 96 1007.2
20260506113737 12 296 0.0 0.0 0.00 0.00 0.00 96 1006.9
20260506113235 12 296 0.0 0.0 0.00 0.00 0.00 97 1007.2
20260506112730 12 296 0.0 0.0 0.00 0.00 0.00 97 1007.1
20260506112228 12 296 0.0 0.0 0.00 0.00 0.00 98 1007.3
20260506111725 12 296 0.0 0.0 0.00 0.00 0.00 98 1007.2
20260506111224 12 296 0.0 0.0 0.00 0.00 0.00 98 1007.3
20260506110721 12 296 0.0 0.0 0.00 0.00 0.00 98 1007.2
20260506110218 12 296 0.0 0.0 0.00 0.00 0.00 98 1007.2
20260506105714 12 296 0.0 0.0 0.00 0.00 0.00 98 1007.4
20260506105211 12 296 0.0 0.0 0.00 0.00 0.00 98 1007.3
20260506104709 12 296 0.0 0.0 0.00 0.00 0.00 98 1007.2
20260506104207 12 296 0.0 0.0 0.00 0.00 0.00 98 1007.4
20260506103703 12 296 0.0 0.0 0.00 0.00 0.00 98 1007.3
20260506103200 12 296 0.0 0.0 0.00 0.00 0.00 98 1006.9
20260506102658 12 297 0.0 0.0 0.00 0.00 0.00 98 1007.2
20260506102156 12 297 0.0 0.0 0.00 0.00 0.00 98 1007.2
20260506101652 12 297 0.0 0.0 0.00 0.00 0.00 98 1006.9
20260506101149 12 297 0.0 0.0 0.00 0.00 0.00 98 1007.2
20260506100648 12 297 0.0 0.0 0.00 0.00 0.00 98 1007.1
20260506100145 12 297 0.0 0.0 0.00 0.00 0.00 98 1007.2
20260506095644 12 297 0.0 0.0 0.00 0.00 0.00 98 1007.2
20260506095140 12 297 0.0 0.0 0.00 0.00 0.00 98 1007.1
20260506094638 12 297 0.0 0.0 0.00 0.00 0.00 98 1007.2
20260506094136 12 297 0.0 0.0 0.00 0.00 0.00 97 1007.1
20260506093634 12 297 0.0 0.0 0.00 0.00 0.00 97 1007.1
20260506093130 12 297 0.0 0.0 0.00 0.00 0.00 97 1006.9
20260506092628 12 297 0.0 0.0 0.00 0.00 0.00 97 1007.1
20260506092125 12 297 0.0 0.0 0.00 0.00 0.00 97 1007.2
20260506091623 12 297 0.0 0.0 0.00 0.00 0.00 97 1007.3
20260506091120 12 297 0.0 0.0 0.00 0.00 0.00 97 1007.5
20260506090618 12 297 0.0 0.0 0.00 0.00 0.00 97 1007.2
20260506090114 12 297 0.0 0.0 0.00 0.00 0.00 97 1007.2
20260506085611 12 297 0.0 0.0 0.00 0.00 0.00 96 1007.3
20260506085108 12 297 0.0 0.0 0.00 0.00 0.00 96 1007.4
20260506084604 13 297 0.0 0.0 0.00 0.00 0.00 96 1007.3
20260506084101 13 297 0.0 0.0 0.00 0.00 0.00 96 1007.4
20260506083558 13 297 0.0 0.0 0.00 0.00 0.00 96 1007.7
20260506083055 13 297 0.0 0.0 0.00 0.00 0.00 96 1007.9
20260506082552 13 297 0.0 0.0 0.00 0.00 0.00 95 1007.7
20260506082048 13 297 0.0 0.0 0.00 0.00 0.00 94 1007.7
20260506081546 13 297 0.0 0.0 0.00 0.00 0.00 94 1007.8
20260506081043 13 297 0.0 0.0 0.00 0.00 0.00 94 1007.7
20260506080540 13 297 0.0 0.0 0.00 0.00 0.00 94 1007.6
20260506073524 13 296 0.0 0.0 0.00 0.00 0.00 94 1007.5
20260506073021 13 296 0.0 0.0 0.00 0.00 0.00 94 1007.5
20260506072518 14 296 0.0 0.0 0.00 0.00 0.00 91 1007.3
20260506072016 14 296 0.0 0.0 0.00 0.00 0.00 91 1007.3
20260506071514 14 296 0.0 0.0 0.00 0.00 0.00 92 1007.4
20260506071011 14 296 0.0 0.0 0.00 0.00 0.00 92 1007.5
20260506070508 14 296 0.0 0.0 0.00 0.00 0.00 93 1007.5
20260506062446 14 296 0.0 0.0 0.00 0.00 0.00 92 1007.7
20260506061941 15 296 0.0 0.0 0.00 0.00 0.00 91 1007.5
20260506061438 14 296 0.0 0.0 0.00 0.00 0.00 91 1007.4
20260506060936 14 296 0.0 0.0 0.00 0.00 0.00 92 1007.5
20260506060434 14 296 0.0 0.0 0.00 0.00 0.00 92 1007.6
20260506051405 15 296 0.0 0.0 0.00 0.00 0.00 89 1007.6
20260506050902 15 295 0.0 0.0 0.00 0.00 0.00 87 1007.6
20260506050400 15 295 0.0 0.0 0.00 0.00 0.00 86 1007.6
20260506044850 15 296 1.6 1.6 0.00 0.00 0.00 88 1007.3
20260506044348 15 296 1.6 1.6 0.00 0.00 0.00 89 1007.3
20260506043845 15 296 0.0 0.0 0.00 0.00 0.00 88 1007.3
20260506043342 15 296 0.0 0.0 0.00 0.00 0.00 88 1007.4
20260506042840 15 296 0.0 0.0 0.00 0.00 0.00 90 1007.3
20260506042339 15 297 0.0 0.0 0.00 0.00 0.00 91 1007.5
20260506041838 14 297 0.0 0.0 0.00 0.00 0.00 91 1007.3
20260506041334 15 297 0.0 0.0 0.00 0.00 0.00 91 1007.2
20260506040831 15 297 0.0 0.0 0.00 0.00 0.00 90 1007.3
20260506040329 15 295 1.6 1.6 0.00 0.00 0.00 89 1007.2
20260506035825 15 259 0.0 0.0 0.00 0.15 0.15 87 1007.3
20260506035323 15 259 0.0 0.0 0.00 0.15 0.15 89 1007.4
20260506034820 15 259 0.0 0.0 0.00 0.15 0.15 90 1007.2
20260506034317 14 259 0.0 0.0 0.00 0.15 0.15 90 1007.2
20260506033814 14 259 0.0 0.0 0.00 0.15 0.15 92 1007.1
20260506033311 14 260 0.0 0.0 0.00 0.15 0.15 91 1006.9
20260506032807 15 249 0.0 0.0 0.00 0.15 0.15 91 1006.8
20260506032306 15 249 0.0 0.0 0.00 0.15 0.15 90 1006.8
20260506031801 15 249 0.0 0.0 0.00 0.15 0.15 90 1007.1
20260506031259 15 248 0.0 0.0 0.00 0.15 0.15 89 1007.1
20260506030756 15 248 0.0 0.0 0.00 0.15 0.15 90 1007.1
20260506030254 15 248 0.0 0.0 0.00 0.15 0.15 89 1007.2
20260506025750 15 247 0.0 0.0 0.00 0.15 0.15 89 1007.2
20260506025247 15 247 0.0 0.0 0.00 0.15 0.15 89 1007.2
20260506024744 15 247 0.0 0.0 0.00 0.15 0.15 89 1006.9
20260506024240 15 247 0.0 0.0 0.00 0.15 0.15 89 1006.9
20260506023736 15 247 0.0 0.0 0.00 0.15 0.15 90 1007.2
20260506023234 15 247 0.0 0.0 0.00 0.15 0.15 89 1006.9
20260506022730 15 247 0.0 0.0 0.00 0.15 0.15 88 1007.1
20260506022228 15 247 0.0 0.0 0.00 0.15 0.15 88 1007.1
20260506021726 15 247 0.0 0.0 0.00 0.15 0.15 86 1006.9
20260506021223 15 247 0.0 0.0 0.00 0.15 0.15 86 1006.8
20260506020720 15 247 0.0 0.0 0.00 0.15 0.15 86 1006.7
20260506020218 15 247 0.0 0.0 0.00 0.15 0.15 87 1006.6
20260506015710 15 247 0.0 0.0 0.00 0.15 0.15 88 1006.7
20260506015207 15 247 0.0 0.0 0.00 0.15 0.15 87 1006.7
20260506014704 15 247 0.0 0.0 0.00 0.15 0.15 86 1006.8
20260506014200 15 247 0.0 0.0 0.00 0.15 0.15 83 1006.6
20260506013658 16 247 0.0 0.0 0.00 0.15 0.15 83 1006.5
20260506013155 15 247 0.0 0.0 0.00 0.15 0.15 80 1006.4
20260506012651 15 247 0.0 1.6 0.00 0.15 0.15 84 1006.4
20260506012148 15 247 0.0 0.0 0.00 0.15 0.15 83 1006.4
20260506011646 15 224 0.0 0.0 0.00 0.15 0.15 83 1006.3
20260506011141 15 223 0.0 0.0 0.00 0.15 0.15 82 1006.3
20260506010640 16 223 0.0 0.0 0.00 0.15 0.15 83 1006.1
20260506010137 16 223 0.0 0.0 0.00 0.15 0.15 83 1006.2
20260506005633 16 222 0.0 0.0 0.00 0.15 0.15 83 1006.4
20260506005130 16 222 0.0 0.0 0.00 0.15 0.15 82 1006.3
20260506004621 16 222 0.0 0.0 0.00 0.15 0.15 83 1006.3
20260506004118 16 223 0.0 0.0 0.00 0.15 0.15 83 1006.1
20260506003614 16 223 0.0 0.0 0.00 0.15 0.15 84 1006.0
20260506003110 16 222 0.0 0.0 0.00 0.15 0.15 84 1005.8
20260506002607 16 222 0.0 0.0 0.00 0.15 0.15 84 1005.8
20260506002103 16 244 0.0 0.0 0.00 0.15 0.15 84 1005.9
20260506001559 16 244 0.0 0.0 0.00 0.15 0.15 84 1006.1
20260506001056 16 244 0.0 0.0 0.00 0.15 0.15 84 1006.0
20260506000554 16 244 0.0 0.0 0.00 0.15 0.15 84 1005.9
20260506000051 16 244 1.6 1.6 0.00 0.15 0.15 85 1005.8
20260505235549 16 244 1.6 1.6 0.00 0.15 0.15 86 1005.7
20260505235046 16 242 0.0 0.0 0.00 0.15 0.15 86 1006.0
20260505234543 16 234 0.0 0.0 0.00 0.15 0.15 89 1006.0
20260505234039 16 234 0.0 0.0 0.00 0.15 0.15 89 1006.0
20260505233537 16 272 0.0 0.0 0.00 0.15 0.15 89 1005.9
20260505233034 16 249 1.6 1.6 0.00 0.15 0.15 90 1005.8
20260505232532 16 249 0.0 0.0 0.00 0.15 0.15 88 1005.7
20260505232029 16 249 0.0 0.0 0.00 0.15 0.15 91 1005.8
20260505231526 16 249 0.0 0.0 0.00 0.15 0.15 92 1005.5
20260505231025 16 248 1.6 1.6 0.00 0.15 0.15 93 1005.4
20260505230522 16 248 1.6 3.2 0.00 0.15 0.15 94 1005.5
20260505230018 16 247 0.0 1.6 0.00 0.15 0.15 94 1005.5
20260505225515 16 253 0.0 0.0 0.00 0.15 0.15 93 1005.1
20260505225011 16 244 0.0 1.6 0.00 0.15 0.15 92 1005.2
20260505224508 16 195 1.6 1.6 0.00 0.15 0.15 92 1004.9
20260505224005 16 195 0.0 0.0 0.00 0.15 0.15 93 1005.2
20260505223502 16 271 0.0 1.6 0.00 0.15 0.15 93 1005.1
20260505222958 16 199 0.0 0.0 0.00 0.15 0.15 93 1005.1
20260505222455 16 358 1.6 3.2 0.00 0.15 0.15 89 1005.1